This demonstration page uses our WeatherBlox Daily Observations layout. Learn more.

Left ArrowRight Arrow

34.74481, -87.66753

Hourly Observations for July 21, 2022

Temp ( °F °C ) Dew Point ( °F °C ) Humidity (%) Winds ( mph kmh ) Pressure ( in mb ) Visibility ( mi km ) Precip ( " mm )
12:53 am 00:53 Clear 84 28.9 75 23.9 74 74 SW 10 17 29.81 1009 10 16 0.00 0.00
1:53 am 01:53 Clear 84 28.9 75 23.9 74 74 WSW 8 13 29.80 1009 10 16 0.00 0.00
2:53 am 02:53 Clear 83 28.3 74 23.3 74 74 SW 7 11 29.80 1009 10 16 0.00 0.00
3:53 am 03:53 Clear 82 27.8 74 23.3 77 77 SW 6 9 29.82 1010 10 16 0.00 0.00
4:53 am 04:53 Clear 82 27.8 74 23.3 77 77 WSW 6 9 29.83 1010 10 16 0.00 0.00
5:53 am 05:53 Mostly Cloudy 82 27.8 74 23.3 77 77 SW 7 11 29.84 1010 10 16 0.00 0.00
6:53 am 06:53 Sunny 82 27.8 74 23.3 77 77 WSW 8 13 29.86 1011 10 16 0.00 0.00
7:53 am 07:53 Sunny 83 28.3 75 23.9 77 77 WSW 7 11 29.87 1011 10 16 0.00 0.00
8:53 am 08:53 Sunny 85 29.4 75 23.9 72 72 W 10 17 29.88 1012 10 16 0.00 0.00
9:53 am 09:53 Partly Cloudy 88 31.1 76 24.4 68 68 W 8 13 29.87 1012 10 16 0.00 0.00
10:13 am 10:13 Mostly Cloudy 88 31.1 76 24.4 68 68 W 8 13 29.87 1011 10 16 0.00 0.00
10:53 am 10:53 Cloudy 88 31.1 77 25 70 70 WSW 7 11 29.88 1012 10 16 0.00 0.00
11:53 am 11:53 Cloudy 91 32.8 78 25.6 66 66 VRB 7 11 29.88 1012 10 16 0.00 0.00
12:19 pm 12:19 Mostly Cloudy 91 32.8 77 25 64 64 SW 9 15 29.86 1011 10 16 0.00 0.00
12:53 pm 12:53 Mostly Cloudy 91 32.8 78 25.6 66 66 SSW 9 15 29.88 1012 10 16 0.00 0.00
1:02 pm 13:02 Cloudy 92 33.3 78 25.6 64 64 W 10 17 29.86 1011 10 16 0.00 0.00
1:33 pm 13:33 Cloudy 93 33.9 78 25.6 62 62 W 7 11 29.86 1011 10 16 0.00 0.00
1:53 pm 13:53 Mostly Cloudy 94 34.4 78 25.6 60 60 W 9 15 29.88 1012 10 16 0.00 0.00
2:53 pm 14:53 Partly Cloudy 94 34.4 78 25.6 60 60 SSW 7 11 29.87 1011 10 16 0.00 0.00
3:53 pm 15:53 Mostly Sunny 96 35.6 77 25 54 54 WSW 13 20 29.85 1011 10 16 0.00 0.00
4:53 pm 16:53 Mostly Sunny 95 35 77 25 56 56 WSW 8 13 29.83 1010 10 16 0.00 0.00
5:53 pm 17:53 Sunny 95 35 77 25 56 56 W 8 13 29.81 1009 10 16 0.00 0.00
6:53 pm 18:53 Sunny 94 34.4 78 25.6 60 60 WSW 8 13 29.82 1010 10 16 0.00 0.00
7:53 pm 19:53 Sunny 91 32.8 78 25.6 66 66 WSW 7 11 29.85 1011 10 16 0.00 0.00
8:00 pm 20:00 Sunny with Nearby Thunderstorms 90 32.2 78 25.6 68 68 WSW 5 7 29.86 1011 10 16 0.00 0.00
8:15 pm 20:15 Clear 89 31.7 78 25.6 70 70 W 6 9 29.85 1011 10 16 0.00 0.00
8:24 pm 20:24 Mostly Clear with Nearby Thunderstorms 90 32.2 78 25.6 68 68 WSW 3 6 29.86 1011 10 16 0.00 0.00
8:53 pm 20:53 Mostly Cloudy with Nearby Thunderstorms 88 31.1 76 24.4 68 68 VRB 6 9 29.88 1012 10 16 0.00 0.00
9:06 pm 21:06 Partly Cloudy with Thunderstorms 87 30.6 74 23.3 65 65 VRB 7 11 29.85 1011 10 16 0.00 0.00
9:24 pm 21:24 Mostly Clear with Nearby Thunderstorms 86 30 75 23.9 70 70 NNW 5 7 29.84 1010 10 16 0.00 0.00
9:53 pm 21:53 Clear with Nearby Thunderstorms 85 29.4 72 22.2 65 65 WNW 5 7 29.89 1012 10 16 0.00 0.00
10:15 pm 22:15 Mostly Cloudy with Thunderstorms 84 28.9 74 23.3 72 72 S 8 13 29.93 1014 10 16 0.00 0.00
10:36 pm 22:36 Mostly Cloudy 84 28.9 74 23.3 72 72 S 14 22 29.93 1014 10 16 0.00 0.00
10:53 pm 22:53 Mostly Clear 81 27.2 71 21.7 72 72 SW 10 17 29.93 1013 10 16 0.00 0.00
11:53 pm 23:53 Clear 80 26.7 70 21.1 71 71 SSW 6 9 29.93 1013 10 16 0.00 0.00

Powered by AerisWeather